| time (UTC) | temp C | wind direction | speed KPH | gust KPH | rain 1hr cm | rain 24hr cm | rain mn cm | humidity % | barometer mb |
| 20260905103302 | 32 | 270 | 16.1 | 0.0 | 0.00 | 0.00 | 0.00 | 27 | 1016.0 |
| 20260905101802 | 32 | 260 | 14.5 | 0.0 | 0.00 | 0.00 | 0.00 | 27 | 1016.0 |
| 20260905100303 | 32 | 260 | 14.5 | 0.0 | 0.00 | 0.00 | 0.00 | 27 | 1016.0 |
| 20260905094915 | 31 | 260 | 17.7 | 0.0 | 0.00 | 0.00 | 0.00 | 27 | 1016.0 |
| 20260905093302 | 31 | 260 | 17.7 | 0.0 | 0.00 | 0.00 | 0.00 | 27 | 1016.0 |
| 20260905091802 | 30 | 260 | 16.1 | 0.0 | 0.00 | 0.00 | 0.00 | 33 | 1016.0 |
| 20260905090302 | 30 | 260 | 16.1 | 0.0 | 0.00 | 0.00 | 0.00 | 33 | 1016.0 |
| 20260905084802 | 28 | 290 | 12.9 | 0.0 | 0.00 | 0.00 | 0.00 | 33 | 1017.0 |
| 20260905083302 | 28 | 290 | 12.9 | 0.0 | 0.00 | 0.00 | 0.00 | 33 | 1017.0 |
| 20260905081802 | 27 | 250 | 11.3 | 0.0 | 0.00 | 0.00 | 0.00 | 40 | 1017.0 |
| 20260905080303 | 27 | 250 | 11.3 | 0.0 | 0.00 | 0.00 | 0.00 | 40 | 1017.0 |
| 20260905074802 | 27 | 280 | 9.7 | 0.0 | 0.00 | 0.00 | 0.00 | 42 | 1017.0 |
| 20260905073311 | 27 | 280 | 9.7 | 0.0 | 0.00 | 0.00 | 0.00 | 42 | 1017.0 |
| 20260905071802 | 25 | 290 | 14.5 | 0.0 | 0.00 | 0.00 | 0.00 | 47 | 1017.0 |
| 20260905070302 | 25 | 290 | 14.5 | 0.0 | 0.00 | 0.00 | 0.00 | 47 | 1017.0 |
| 20260905064802 | 22 | 270 | 14.5 | 0.0 | 0.00 | 0.00 | 0.00 | 61 | 1017.0 |
| 20260905063302 | 22 | 270 | 14.5 | 0.0 | 0.00 | 0.00 | 0.00 | 61 | 1017.0 |
| 20260905061803 | 21 | 270 | 11.3 | 0.0 | 0.00 | 0.00 | 0.00 | 69 | 1017.0 |
| 20260905060303 | 21 | 270 | 11.3 | 0.0 | 0.00 | 0.00 | 0.00 | 69 | 1017.0 |
| 20260905054802 | 18 | 260 | 9.7 | 0.0 | 0.00 | 0.00 | 0.00 | 78 | 1016.0 |
| 20260905053303 | 18 | 260 | 9.7 | 0.0 | 0.00 | 0.00 | 0.00 | 78 | 1016.0 |
| 20260905051802 | 17 | 270 | 9.7 | 0.0 | 0.00 | 0.00 | 0.00 | 83 | 1016.0 |
| 20260905050302 | 17 | 270 | 9.7 | 0.0 | 0.00 | 0.00 | 0.00 | 83 | 1016.0 |
| 20260905044802 | 16 | 260 | 8.0 | 0.0 | 0.00 | 0.00 | 0.00 | 88 | 1016.0 |
| 20260905043302 | 16 | 260 | 8.0 | 0.0 | 0.00 | 0.00 | 0.00 | 88 | 1016.0 |
| 20260905041802 | 15 | 240 | 8.0 | 0.0 | 0.00 | 0.00 | 0.00 | 94 | 1016.0 |
| 20260905040302 | 15 | 240 | 8.0 | 0.0 | 0.00 | 0.00 | 0.00 | 94 | 1016.0 |
| 20260905034802 | 15 | 250 | 4.8 | 0.0 | 0.00 | 0.00 | 0.00 | 94 | 1016.0 |
| 20260905033302 | 15 | 250 | 4.8 | 0.0 | 0.00 | 0.00 | 0.00 | 94 | 1016.0 |
| 20260905031802 | 15 | 0 | 0.0 | 0.0 | 0.00 | 0.00 | 0.00 | 94 | 1016.0 |
| 20260905030302 | 15 | 0 | 0.0 | 0.0 | 0.00 | 0.00 | 0.00 | 94 | 1016.0 |
| 20260905024815 | 15 | 3.2 | 0.0 | 0.00 | 0.00 | 0.00 | 94 | 1016.0 | |
| 20260905023302 | 15 | 3.2 | 0.0 | 0.00 | 0.00 | 0.00 | 94 | 1016.0 | |
| 20260905021802 | 15 | 310 | 8.0 | 0.0 | 0.00 | 0.00 | 0.00 | 94 | 1016.0 |
| 20260905020303 | 15 | 310 | 8.0 | 0.0 | 0.00 | 0.00 | 0.00 | 94 | 1016.0 |
| 20260905014802 | 16 | 3.2 | 0.0 | 0.00 | 0.00 | 0.00 | 94 | 1016.0 | |
| 20260905013302 | 16 | 3.2 | 0.0 | 0.00 | 0.00 | 0.00 | 94 | 1016.0 | |
| 20260905011802 | 16 | 0 | 0.0 | 0.0 | 0.00 | 0.00 | 0.00 | 94 | 1016.0 |
| 20260905010303 | 16 | 0 | 0.0 | 0.0 | 0.00 | 0.00 | 0.00 | 94 | 1016.0 |
| 20260905004803 | 17 | 220 | 3.2 | 0.0 | 0.00 | 0.00 | 0.00 | 88 | 1016.0 |
| 20260905003303 | 17 | 220 | 3.2 | 0.0 | 0.00 | 0.00 | 0.00 | 88 | 1016.0 |
| 20260905001802 | 17 | 340 | 4.8 | 0.0 | 0.00 | 0.00 | 0.00 | 83 | 1016.0 |
| 20260905000303 | 17 | 340 | 4.8 | 0.0 | 0.00 | 0.00 | 0.00 | 83 | 1016.0 |
| 20260904234802 | 17 | 280 | 4.8 | 0.0 | 0.00 | 0.00 | 0.00 | 78 | 1016.0 |
| 20260904233302 | 17 | 280 | 4.8 | 0.0 | 0.00 | 0.00 | 0.00 | 78 | 1016.0 |
| 20260904231804 | 17 | 0 | 0.0 | 0.0 | 0.00 | 0.00 | 0.00 | 78 | 1016.0 |
| 20260904230302 | 17 | 0 | 0.0 | 0.0 | 0.00 | 0.00 | 0.00 | 78 | 1016.0 |
| 20260904224804 | 18 | 0 | 0.0 | 0.0 | 0.00 | 0.00 | 0.00 | 73 | 1016.0 |
| 20260904223302 | 18 | 0 | 0.0 | 0.0 | 0.00 | 0.00 | 0.00 | 73 | 1016.0 |
| 20260904221803 | 20 | 310 | 4.8 | 0.0 | 0.00 | 0.00 | 0.00 | 69 | 1016.0 |
| 20260904220302 | 20 | 310 | 4.8 | 0.0 | 0.00 | 0.00 | 0.00 | 69 | 1016.0 |
| 20260904214802 | 18 | 270 | 9.7 | 0.0 | 0.00 | 0.00 | 0.00 | 73 | 1016.0 |
| 20260904213302 | 18 | 270 | 9.7 | 0.0 | 0.00 | 0.00 | 0.00 | 73 | 1016.0 |
| 20260904211802 | 20 | 230 | 8.0 | 0.0 | 0.00 | 0.00 | 0.00 | 73 | 1016.0 |
| 20260904210301 | 20 | 230 | 8.0 | 0.0 | 0.00 | 0.00 | 0.00 | 73 | 1016.0 |
| 20260904204803 | 20 | 220 | 4.8 | 0.0 | 0.00 | 0.00 | 0.00 | 73 | 1016.0 |
| 20260904203302 | 20 | 220 | 4.8 | 0.0 | 0.00 | 0.00 | 0.00 | 73 | 1016.0 |
| 20260904201802 | 21 | 210 | 3.2 | 0.0 | 0.00 | 0.00 | 0.00 | 73 | 1016.0 |
| 20260904200316 | 21 | 250 | 4.8 | 0.0 | 0.00 | 0.00 | 0.00 | 64 | 1016.0 |
| 20260904194802 | 21 | 250 | 4.8 | 0.0 | 0.00 | 0.00 | 0.00 | 64 | 1016.0 |
| 20260904193316 | 22 | 200 | 3.2 | 0.0 | 0.00 | 0.00 | 0.00 | 61 | 1016.0 |
| 20260904191802 | 22 | 200 | 3.2 | 0.0 | 0.00 | 0.00 | 0.00 | 61 | 1016.0 |
| 20260904190302 | 22 | 200 | 3.2 | 0.0 | 0.00 | 0.00 | 0.00 | 61 | 1016.0 |
| 20260904184802 | 22 | 220 | 4.8 | 0.0 | 0.00 | 0.00 | 0.00 | 57 | 1016.0 |
| 20260904183302 | 22 | 220 | 4.8 | 0.0 | 0.00 | 0.00 | 0.00 | 57 | 1016.0 |
| 20260904181807 | 22 | 230 | 8.0 | 0.0 | 0.00 | 0.00 | 0.00 | 50 | 1016.0 |
| 20260904180302 | 22 | 230 | 8.0 | 0.0 | 0.00 | 0.00 | 0.00 | 50 | 1016.0 |
| 20260904174802 | 23 | 220 | 8.0 | 0.0 | 0.00 | 0.00 | 0.00 | 47 | 1016.0 |
| 20260904173302 | 23 | 220 | 8.0 | 0.0 | 0.00 | 0.00 | 0.00 | 47 | 1016.0 |
| 20260904171803 | 23 | 240 | 8.0 | 0.0 | 0.00 | 0.00 | 0.00 | 50 | 1015.0 |
| 20260904170302 | 23 | 240 | 8.0 | 0.0 | 0.00 | 0.00 | 0.00 | 50 | 1015.0 |
| 20260904164802 | 25 | 250 | 9.7 | 0.0 | 0.00 | 0.00 | 0.00 | 54 | 1015.0 |
| 20260904163302 | 25 | 250 | 9.7 | 0.0 | 0.00 | 0.00 | 0.00 | 54 | 1015.0 |
| 20260904161802 | 27 | 260 | 12.9 | 0.0 | 0.00 | 0.00 | 0.00 | 39 | 1015.0 |
| 20260904160302 | 27 | 260 | 12.9 | 0.0 | 0.00 | 0.00 | 0.00 | 39 | 1015.0 |
| 20260904154802 | 28 | 270 | 12.9 | 0.0 | 0.00 | 0.00 | 0.00 | 35 | 1015.0 |
| 20260904153303 | 28 | 270 | 12.9 | 0.0 | 0.00 | 0.00 | 0.00 | 35 | 1015.0 |
| 20260904151802 | 30 | 260 | 11.3 | 0.0 | 0.00 | 0.00 | 0.00 | 31 | 1015.0 |
| 20260904150303 | 30 | 260 | 11.3 | 0.0 | 0.00 | 0.00 | 0.00 | 31 | 1015.0 |
| 20260904144802 | 30 | 270 | 14.5 | 0.0 | 0.00 | 0.00 | 0.00 | 29 | 1015.0 |
| 20260904143303 | 30 | 270 | 14.5 | 0.0 | 0.00 | 0.00 | 0.00 | 29 | 1015.0 |
| 20260904141802 | 30 | 250 | 11.3 | 0.0 | 0.00 | 0.00 | 0.00 | 29 | 1015.0 |
| 20260904140312 | 30 | 250 | 11.3 | 0.0 | 0.00 | 0.00 | 0.00 | 29 | 1015.0 |
| 20260904134802 | 30 | 240 | 16.1 | 0.0 | 0.00 | 0.00 | 0.00 | 31 | 1015.0 |
| 20260904133302 | 30 | 240 | 16.1 | 0.0 | 0.00 | 0.00 | 0.00 | 31 | 1015.0 |
| 20260904131802 | 30 | 250 | 17.7 | 0.0 | 0.00 | 0.00 | 0.00 | 31 | 1016.0 |
| 20260904130302 | 30 | 250 | 17.7 | 0.0 | 0.00 | 0.00 | 0.00 | 31 | 1016.0 |
| 20260904124802 | 30 | 280 | 14.5 | 0.0 | 0.00 | 0.00 | 0.00 | 33 | 1016.0 |
| 20260904123302 | 30 | 280 | 14.5 | 0.0 | 0.00 | 0.00 | 0.00 | 33 | 1016.0 |
| 20260904121802 | 30 | 250 | 12.9 | 0.0 | 0.00 | 0.00 | 0.00 | 35 | 1016.0 |
| 20260904120302 | 30 | 250 | 12.9 | 0.0 | 0.00 | 0.00 | 0.00 | 35 | 1016.0 |
| 20260904114802 | 30 | 260 | 16.1 | 0.0 | 0.00 | 0.00 | 0.00 | 35 | 1017.0 |
| 20260904113302 | 30 | 260 | 16.1 | 0.0 | 0.00 | 0.00 | 0.00 | 35 | 1017.0 |
| 20260904111802 | 30 | 240 | 16.1 | 0.0 | 0.00 | 0.00 | 0.00 | 38 | 1017.0 |
| 20260904110415 | 28 | 260 | 14.5 | 0.0 | 0.00 | 0.00 | 0.00 | 40 | 1017.0 |
| 20260904104841 | 28 | 260 | 14.5 | 0.0 | 0.00 | 0.00 | 0.00 | 40 | 1017.0 |